Regional Weather Roundup
Issued by NWS

Home | Current Version | Previous Version | Text Only | Print | Product List | Glossary On
Versions: 1 2 3 4 5 6 7 8 9 10 11 12 13 14 15 16 17 18 19 20 21 22 23 24 25 26 27 28 29 30 31 32 33 34 35 36 37 38 39 40 41 42 43 44 45 46 47 48 49 50
338
ASUS43 KTOP 280808
RWRKS

WEATHER ROUNDUP FOR KANSAS
NATIONAL WEATHER SERVICE GOODLAND KS
200 AM CST TUE FEB 28 2017

NOTE:  "FAIR" INDICATES FEW OR NO CLOUDS BELOW 12,000 FEET WITH NO
SIGNIFICANT WEATHER AND/OR OBSTRUCTIONS TO VISIBILITY.

KSZ001>006-013>018-027>032-041>047-280900-
NORTHWEST KANSAS

CITY           SKY/WX    TMP DP  RH WIND       PRES   REMARKS
GOODLAND       CLOUDY    31  20  63 W16       29.69R WCI  20
HAYS             N/A     41  20  43 CALM      29.64R
HILL CITY      CLOUDY    51  20  29 W18G28    29.62R
RUSSELL        CLOUDY    45  22  40 SW12      29.62R
$$

KSZ061>065-074>080-084>089-280900-
SOUTHWEST KANSAS

CITY           SKY/WX    TMP DP  RH WIND       PRES   REMARKS
DODGE CITY     CLOUDY    43  15  32 SW8       29.68F
ELKHART          N/A     42  12  29 SW8         N/A
GARDEN CITY    PTCLDY    41  12  30 W7        29.67F
GREAT BEND     CLEAR     46  25  43 SW13      29.65F
LIBERAL        CLOUDY    41  10  28 SW7       29.71F
PRATT          MOCLDY    42  33  70 SW8       29.69F
$$

KSZ066>073-081>083-090>101-280900-
SOUTHEAST KANSAS

CITY           SKY/WX    TMP DP  RH WIND       PRES   REMARKS
CHANUTE        CLOUDY    63  58  83 S22G31    29.76F
COFFEYVILLE    CLOUDY    62  58  86 S20G30    29.79F
HUTCHINSON     PTCLDY    55  51  86 S14       29.69R
MEDICINE LODGE   N/A     48  43  82 SE5       29.70F
NEWTON         PTCLDY    58  56  93 S22       29.71R
PARSONS        CLOUDY    63  58  83 S15G28    29.79F
WICHITA INTL   CLOUDY    59  58  96 S18G26    29.72R FOG
WICHITA JABRA  CLOUDY    60  58  92 S20G32    29.72R
WICHITA MCCONL CLOUDY    60  58  92 SW18G26   29.72R
WINFIELD       CLOUDY    61  59  93 S18G28    29.74F
$$

KSZ007>012-019>026-033>040-048>060-102>105-280900-
NORTHEAST KANSAS

CITY           SKY/WX    TMP DP  RH WIND       PRES   REMARKS
CONCORDIA      CLEAR     49  40  71 S20       29.60S
EMPORIA        MOCLDY    61  58  90 S24G32    29.69F FOG
LAWRENCE       CLOUDY    64  59  83 S20G28    29.69F
MANHATTAN      CLEAR     60  55  83 SW20      29.65R
MARYSVILLE     PTCLDY    54  52  94 SW12G21   29.62S
OLATHE IND     CLOUDY    60  56  86 S17G26    29.73S
OLATHE EXE     CLOUDY    60  57  89 S18G25    29.73F
SALINA         CLEAR     56  50  80 SW15      29.66R
TOPEKA BILLARD CLOUDY    64  59  83 S24G32    29.66F
TOPEKA FORBES  CLOUDY    65  58  78 S20G28    29.68S
$$




USA.gov is the U.S. government's official web portal to all federal, state and local government web resources and services.